Regional Weather Roundup
Issued by NWS Goodland, KS

Home | Current Version | Previous Version | Graphics & Text | Print | Product List | Glossary On
Versions: 1 2 3 4 5 6 7 8 9 10 11 12 13 14 15 16 17 18 19 20 21 22 23 24 25 26 27 28 29 30 31 32 33 34 35 36 37 38 39 40 41 42 43 44 45 46 47 48 49 50
000
ASUS43 KGLD 041159
RWRGLD

GOODLAND FORECAST AREA HOURLY WEATHER ROUNDUP
NATIONAL WEATHER SERVICE GOODLAND KS
500 AM MST SUN DEC 04 2016

...OFFICIAL OBSERVATIONS...

CITY           SKY/WX    TMP DP  RH WIND       PRES   REMARKS
GOODLAND KS    CLEAR     21  12  68 W13       30.02S WCI   9
HILL CITY KS   CLEAR     25  20  81 W6        30.02S
IMPERIAL NEB   CLEAR     24  14  65 W13       30.01S WCI  12
MCCOOK NEB     CLEAR     23  17  78 W13       30.00S WCI  11
AKRON CO       CLEAR     24  10  55 W8        30.01R
BURLINGTON CO  CLEAR     18   9  68 W12       30.03S WCI   5
LIMON CO       CLOUDY     5   1  83 N5        30.03F
$$

...UNOFFICIAL OBSERVATIONS...

CITY           SKY/WX    TMP DP  RH WIND       PRES   REMARKS
COLBY KS       CLEAR     21  18  86 W13       30.03S WCI   9
LENORA KS        N/A     26  32 100 MISG        N/A
NORTON KS      CLEAR     28  18  64 W14       29.99S WCI  17
SHARON SPRINGS   N/A     21  15  78 W9          N/A
TRENTON NEB      N/A     21  32 100 CALM        N/A
YUMA CO        FAIR      18  10  73 W9        30.02S
$$




USA.gov is the U.S. government's official web portal to all federal, state and local government web resources and services.